Location: Stull Observatory
(42.2506°N, 77.7903°W)
Time: 01:21:45
(UTC-04:00)

Okean O Rocket - Visible Passes

Search period start: 26 September 2016 00:00
Search period end: 06 October 2016 00:00
Orbit: 624 x 645 km, 98.1° (Epoch: 24 September)

Date Brightness Start Highest point End Pass type
(mag) Time Alt. Az. Time Alt. Az. Time Alt. Az.
26 Sep 2.0 04:34:06 10° NNE 04:38:28 57° E 04:38:32 57° ESE visible
26 Sep 3.4 06:11:55 10° NNW 06:14:21 15° WNW 06:16:00 12° W visible
27 Sep 1.4 04:55:46 10° N 05:00:11 82° WNW 05:00:24 79° WSW visible
28 Sep 4.3 03:42:31 10° NE 03:44:48 16° E 03:44:48 16° E visible
28 Sep 1.8 05:17:37 10° N 05:21:51 48° WNW 05:22:16 46° W visible
29 Sep 3.6 04:03:24 10° NE 04:06:39 26° E 04:06:39 26° E visible
29 Sep 2.5 05:39:40 10° N 05:43:27 29° WNW 05:44:07 27° W visible
30 Sep 2.7 04:24:44 10° NNE 04:28:30 43° E 04:28:30 43° E visible
30 Sep 3.1 06:02:01 10° NNW 06:04:59 18° WNW 06:05:58 17° W visible
01 Oct 1.7 04:46:19 10° NNE 04:50:21 71° NE 04:50:21 71° NE visible
01 Oct 3.6 06:25:11 10° NW 06:26:27 11° WNW 06:27:43 10° WNW visible
02 Oct 4.6 03:33:47 10° ENE 03:34:45 12° ENE 03:34:45 12° ENE visible
02 Oct 1.6 05:08:05 10° N 05:12:12 60° WNW 05:12:12 60° WNW visible
03 Oct 4.0 03:54:14 10° NE 03:56:36 19° ENE 03:56:36 19° ENE visible
03 Oct 2.2 05:30:03 10° N 05:34:03 36° WNW 05:34:03 36° WNW visible
04 Oct 3.3 04:15:25 10° NNE 04:18:27 31° ENE 04:18:27 31° ENE visible
04 Oct 2.8 05:52:14 10° NNW 05:55:37 22° WNW 05:55:54 22° WNW visible
05 Oct 2.4 04:36:53 10° NNE 04:40:17 48° NE 04:40:17 48° NE visible
05 Oct 3.3 06:14:52 10° NNW 06:17:06 14° WNW 06:17:45 13° WNW visible
